sat.trackr.live / text

‹ back to catalog

STARLINK-36365

NORAD 67666 · 2026-022U

PAYLOAD ACTIVE UNKNOWN

§ Identity

Operator
Country
US
Launch date
2026-02-02
Launch site
AFWTR
Launch vehicle
Mass (kg)
RCS (m²)

Purposes: comms

External: N2YO · Heavens-Above · Gunter

§ Orbital elements

Epoch: 2026-09-19T20:18:14.008608Z

Period
93.90 min
Inclination
97.2856°
Eccentricity
0.0000190
Mean motion
15.33473902 rev/d
Perigee alt
465.3 km
Apogee alt
465.6 km
Semi-major
6,843.6 km
B*
7.3405e-4
RAAN
294.3707°
Arg perigee
147.7783°
Mean anomaly
212.3471°
Rev number
3,532

§ Raw data

STARLINK-363651 67666U 26022U   26262.84599547  .00023719  00000+0  73405-3 0  99952 67666  97.2856 294.3707 0000190 147.7783 212.3471 15.33473902 35329

JSON: /api/v1/satellites/67666 · /tle

For live sub-satellite position, see the globe view (requires WebGL).

§ Visibility from observer

Set your observer location to see the next 7 days of passes ≥ 10°. The values pass through the URL so the page stays shareable.

No JS? Fill the form by hand. The geolocation button needs JavaScript.